Regional Weather Roundup
Issued by NWS

Home | Current Version | Previous Version | Text Only | Print | Product List | Glossary Off
Versions: 1 2 3 4 5 6 7 8 9 10 11 12 13 14 15 16 17 18 19 20 21 22 23 24 25 26 27 28 29 30 31 32 33 34 35 36 37 38 39 40 41 42 43 44 45 46 47 48 49 50

000
ASUS43 KLMK 270110
RWRKY
KENTUCKY REGIONAL WEATHER ROUNDUP
NATIONAL WEATHER SERVICE LOUISVILLE KY
900 PM EDT SUN MAR 26 2017

NOTE "FAIR" INDICATES FEW OR NO CLOUDS BELOW 12,000 FEET
WITH NO SIGNIFICANT WEATHER AND/OR OBSTRUCTIONS TO VISIBILITY.

KYZ001>023-026-027-061>063-070>075-270200-
WESTERN AND SOUTH CENTRAL KENTUCKY

CITY           SKY/WX    TMP DP  RH WIND       PRES   REMARKS
PADUCAH        PTCLDY    61  51  70 CALM      29.95S
HENDERSON      PTCLDY    55  46  71 NW7       29.96S
OWENSBORO      CLEAR     59  49  69 W5        29.98R
HOPKINSVILLE   CLOUDY    63  52  67 CALM      29.97R
BOWLING GREEN  CLOUDY    67  52  58 W5        29.98R
GLASGOW        CLOUDY    65  53  65 SW3       29.97R
$$

KYZ024-025-028>034-038-045-046-053-270200-
NORTH CENTRAL KENTUCKY

CITY           SKY/WX    TMP DP  RH WIND       PRES   REMARKS
LOUISVILLE/SDF LGT RAIN  64  53  67 W12       29.96R
LOUISVILLE/LOU CLOUDY    64  55  72 W7        29.96R
FORT KNOX      CLOUDY    62  53  72 W8        29.95R
$$

KYZ035>037-039>044-047>052-055>060-089>105-270200-
NORTHEAST KENTUCKY

CITY           SKY/WX    TMP DP  RH WIND       PRES   REMARKS
LEXINGTON      CLOUDY    61  54  77 S8        29.97R
COVINGTON      MOCLDY    57  55  93 SW6       29.94R
FRANKFORT      CLOUDY    63  53  70 SW8       29.94R
$$

KYZ054-064>069-076>088-106>120-270200-
SOUTHEAST KENTUCKY

CITY           SKY/WX    TMP DP  RH WIND       PRES   REMARKS
JACKSON        LGT RAIN  59  57  93 VRB3      30.00R
LONDON         CLOUDY    61  56  83 SW3       30.01R
SOMERSET       CLOUDY    63  52  67 SW5       30.02R
MIDDLESBORO    CLEAR     67  54  62 SW3       30.02R
MONTICELLO     CLOUDY    65  55  70 SW13      30.02R
$$





USA.gov is the U.S. government's official web portal to all federal, state and local government web resources and services.